This demonstration page uses our WeatherBlox Daily Observations layout. Learn more.

Left ArrowRight Arrow

38.83388, -104.82136

Hourly Observations for November 7, 2019

Temp ( °F °C ) Dew Point ( °F °C ) Humidity (%) Winds ( mph kmh ) Pressure ( in mb ) Visibility ( mi km ) Precip ( " mm )
12:58 am 00:58 Mostly Cloudy with Light Freezing Rain 25 -3.8 24 -4.2 97 97 SSE 9 15 30.03 1017 1 2 0.00 0.00
1:58 am 01:58 Mostly Cloudy with Light Freezing Rain 25 -4.1 24 -4.4 98 98 SSE 5 7 30.04 1017 0 0 0.00 0.00
2:30 am 02:30 Mostly Cloudy with Light Snow 25 -4 25 -4 100 100 SE 7 11 30.03 1017 0 0 0.00 0.00
2:58 am 02:58 Mostly Cloudy with Light Snow 25 -4.1 24 -4.4 98 98 S 7 11 30.05 1018 3 4 0.00 0.00
3:07 am 03:07 Mostly Cloudy 25 -4 25 -4 100 100 SSE 7 11 30.08 1019 10 16 0.00 0.00
3:12 am 03:12 Mostly Cloudy with Mist and Fog 25 -4 25 -4 100 100 S 7 11 30.08 1019 5 8 0.00 0.00
3:14 am 03:14 Mostly Cloudy with Light Snow Showers 25 -4 25 -4 100 100 S 9 15 30.08 1019 5 8 0.00 0.00
3:19 am 03:19 Mostly Cloudy with Light Snow Showers 25 -4 25 -4 100 100 S 8 13 30.10 1019 3 4 0.00 0.00
3:47 am 03:47 Mostly Cloudy with Mist and Fog 25 -4 23 -5 93 93 S 8 13 30.14 1021 3 4 0.00 0.00
3:52 am 03:52 Mostly Cloudy with Mist and Fog 25 -4 23 -5 93 93 S 9 15 30.14 1021 4 6 0.00 0.00
3:58 am 03:58 Mostly Cloudy with Mist and Fog 24 -4.3 24 -4.7 97 97 S 10 17 30.48 1032 3 4 0.00 0.00
4:19 am 04:19 Cloudy with Light Snow Showers 25 -4 23 -5 93 93 S 10 17 30.48 1032 7 11 0.00 0.00
4:31 am 04:31 Cloudy with Light Freezing Drizzle 25 -4 23 -5 93 93 S 9 15 30.48 1032 2 2 0.00 0.00
4:46 am 04:46 Mostly Cloudy with Light Freezing Drizzle 25 -4 23 -5 93 93 SSE 7 11 30.49 1033 1 2 0.00 0.00
4:58 am 04:58 Mostly Cloudy with Light Freezing Drizzle 24 -4.5 23 -4.9 97 97 SSE 8 13 30.51 1033 0 0 0.00 0.00
5:24 am 05:24 Mostly Cloudy with Light Snow 25 -4 23 -5 93 93 SSE 6 9 30.16 1021 0 0 0.00 0.00
5:25 am 05:25 Mostly Cloudy with Freezing Fog 25 -4 23 -5 93 93 SSE 6 9 30.16 1021 0 0 0.00 0.00
5:58 am 05:58 Mostly Cloudy with Freezing Fog 24 -4.5 23 -4.9 97 97 SSE 5 7 30.18 1022 1 2 0.00 0.00
6:58 am 06:58 Mostly Cloudy with Freezing Fog 24 -4.2 24 -4.6 97 97 Calm 30.20 1023 1 2 0.00 0.00
7:58 am 07:58 Mostly Cloudy with Freezing Fog 25 -4.1 24 -4.4 98 98 Calm 30.21 1023 1 2 0.00 0.00
8:58 am 08:58 Mostly Cloudy with Freezing Fog 25 -3.7 24 -4.2 96 96 Calm 30.21 1023 N/A 0.00 0.00
9:14 am 09:14 Mostly Cloudy with Light Snow 25 -4 25 -4 100 100 Calm 30.21 1023 N/A 0.00 0.00
9:47 am 09:47 Mostly Cloudy with Freezing Fog 27 -3 27 -3 100 100 Calm 30.21 1023 N/A 0.00 0.00
9:49 am 09:49 Mostly Cloudy with Light Snow Showers 27 -3 27 -3 100 100 Calm 30.21 1023 N/A 0.00 0.00
9:58 am 09:58 Mostly Cloudy with Light Snow Showers 27 -3 26 -3.4 97 97 Calm 30.21 1023 N/A 0.00 0.00
10:22 am 10:22 Mostly Cloudy with Freezing Fog 27 -3 27 -3 100 100 Calm 30.21 1023 N/A 0.00 0.00
10:31 am 10:31 Mostly Cloudy with Light Showers 27 -3 27 -3 100 100 Calm 30.21 1023 1 2 0.00 0.00
10:58 am 10:58 Mostly Cloudy with Heavy Snow Showers 27 -2.7 27 -3 98 98 Calm 30.21 1023 N/A 0.00 0.00
11:08 am 11:08 Mostly Cloudy with Fog 28 -2 27 -3 93 93 Calm 30.20 1023 N/A 0.00 0.00
11:28 am 11:28 Mostly Cloudy with Light Showers 28 -2 28 -2 100 100 Calm 30.19 1022 N/A 0.00 0.00
11:58 am 11:58 Mostly Cloudy with Light Rain/Snow 29 -1.5 29 -1.7 99 99 Calm 30.15 1021 1 2 0.00 0.00
12:08 pm 12:08 Mostly Cloudy with Fog 28 -2 28 -2 100 100 Calm 30.16 1021 1 2 0.00 0.00
12:58 pm 12:58 Mostly Cloudy with Fog 30 -0.9 30 -1.2 98 98 Calm 30.13 1020 1 2 0.00 0.00
1:58 pm 13:58 Mostly Cloudy with Fog 32 -0.2 31 -0.3 99 99 SE 5 7 30.11 1020 1 2 0.00 0.00
2:58 pm 14:58 Mostly Cloudy with Fog 32 -0.1 32 -0.1 100 100 SE 6 9 30.10 1019 N/A 0.00 0.00
3:58 pm 15:58 Mostly Cloudy with Fog 32 -0.2 32 -0.2 100 100 Calm 30.09 1019 N/A 0.00 0.00
4:58 pm 16:58 Mostly Cloudy with Fog 31 -0.7 31 -0.7 100 100 Calm 30.13 1020 N/A 0.00 0.00
5:58 pm 17:58 Mostly Cloudy with Fog 30 -1.3 30 -1.3 100 100 Calm 30.13 1020 N/A 0.00 0.00
6:13 pm 18:13 Partly Cloudy with Mist and Fog 30 -1 30 -1 100 100 Calm 30.13 1020 6 10 0.00 0.00
6:58 pm 18:58 Clear 30 -0.9 30 -1 99 99 Calm 30.14 1021 10 16 0.00 0.00
7:58 pm 19:58 Clear 31 -0.4 31 -0.7 98 98 Calm 30.13 1020 10 16 0.00 0.00
8:58 pm 20:58 Clear 31 -0.3 29 -1.4 92 92 SSE 3 6 30.13 1020 10 16 0.00 0.00
9:58 pm 21:58 Clear 33 0.8 29 -1.6 84 84 Calm 30.10 1019 10 16 0.00 0.00
10:58 pm 22:58 Mostly Cloudy 33 0.3 26 -3.1 78 78 NW 5 7 30.09 1019 10 16 0.00 0.00
11:58 pm 23:58 Clear 36 2 24 -4.7 62 62 Calm 30.05 1018 10 16 0.00 0.00

Powered by AerisWeather